Погода в Ливадии

Россия / Республика Крым     44°28′17″N   34°08′45″E
темп.,
°C
ветер,
м/с
пор.,
м/с
влажн.,
%
обл.,
%
осадки,
мм/ч
давл.,
гПа
погр.,
м
29 июня, ср
ср2900:00+20ссз4376100 0.3 101333
03:00+19ссв237543 0.3 101333
06:00+20ссв467810 0.0 101391
09:00+21всв586974 0.0 1014278
12:00+22всв577327 0.0 1014423
15:00+22всв5667100 0.0 1014416
18:00+23св456087 0.0 1013311
21:00+21с226876 0.0 101311
30 июня, чт
чт3000:00+21ссз44663 0.0 101318
03:00+21ссз55590 0.0 101332
06:00+21ссз44670 0.0 101220
09:00+23св34660 0.0 1012286
12:00+23всв35710 0.1 1013478
15:00+23всв34680 0.1 1012473
18:00+23всв117211 0.1 101251
21:00+22с337489 0.3 101213
1 июля, пт
пт100:00+21ссз447039 0.0 101219
03:00+21сз337034 0.0 101215
06:00+20сз337298 0.0 101216
09:00+22юз116728 0.0 1013207
12:00+22ю226215 0.1 1014482
15:00+22з226675 0.1 1014179
18:00+23юз126414 0.0 1014197
21:00+21ссз22700 0.1 101513
2 июля, сб
сб200:00+20ссз54570 0.0 101527
03:00+20ссз55550 0.0 101635
06:00+20сз55640 0.0 101641
09:00+22в23570 0.0 1017497
12:00+22в57680 0.0 1018650
15:00+21всв46709 0.0 1018490
18:00+21в356612 0.0 1018324
21:00+20с33620 0.0 101932
3 июля, вс
вс300:00+19с55530 0.0 101958
03:00+19ссз55470 0.0 101945
06:00+19ссз55490 0.0 101940
09:00+22св12520 0.0 1018344
12:00+22вюв34550 0.0 1019514
15:00+22вюв12520 0.0 1018453
18:00+22сз11510 0.0 1018358
21:00+21сз22580 0.0 101813